Location: Beekmeers
(50.8953°N, 3.6968°E)
Time: 16:40:48
(UTC+00:00)

H-2A R/B - Pass Details

Date: 08 August 2024
Orbit: 566 x 633 km, 98.4° (Epoch: 06 September)

Event Time Altitude Azimuth Distance (km) Brightness Sun altitude
Rises 23:38:53 0° 21° (NNE) 2,833 6.6 -23.3°
Reaches altitude 10° 23:41:09 10° 29° (NNE) 1,939 5.4 -23.3°
Enters shadow 23:44:58 39° 94° (E) 915 2.8 -23.3°
